Location: Calvatone
(45.1167°N, 10.4333°E)
Time: 15:22:59
(UTC+00:00)

ATLAS 2AS CENTAUR R/B - Pass Details

Date: 28 January 2023
Orbit: 986 x 1226 km, 63.7° (Epoch: 27 March)

Event Time Altitude Azimuth Distance (km) Brightness Sun altitude
Rises 17:20:13 0° 321° (NW) 4,013 6.0 -10.9°
Reaches altitude 10° 17:23:21 10° 331° (NNW) 3,011 5.3 -11.4°
Maximum altitude 17:29:40 33° 33° (NNE) 1,748 3.5 -12.5°
Enters shadow 17:34:01 17° 87° (E) 2,386 3.9 -13.2°
